Location: East Horndon
(51.5667°N, 0.3500°E)
Time: 10:19:30
(UTC+00:00)

COSMO-SKYMED 1 - Pass Details

Date: 08 November 2025
Orbit: 579 x 581 km, 97.9° (Epoch: 11 December)

Event Time Altitude Azimuth Distance (km) Brightness Sun altitude
Rises 04:52:37 0° 154° (SSE) 2,797 6.3 -20.6°
Reaches altitude 10° 04:54:47 10° 150° (SSE) 1,902 5.4 -20.3°
Maximum altitude 04:58:50 59° 71° (ENE) 678 3.0 -19.7°
Drops below altitude 10° 05:02:55 10° 352° (N) 1,916 5.0 -19.0°
Sets 05:05:06 0° 349° (N) 2,820 5.8 -18.7°
